Location: Fort Wayne
(41.1310°N, 85.1290°W)
Time: 02:40:56
(UTC-05:00)

Tiros 1 despin weight - Visible Passes

Search period start: 09 February 2016 00:00
Search period end: 19 February 2016 00:00
Orbit: 597 x 645 km, 48.2° (Epoch: 08 February)

Date Brightness Start Highest point End Pass type
(mag) Time Alt. Az. Time Alt. Az. Time Alt. Az.
09 Feb ? 18:31:52 10° WSW 18:36:19 73° NNW 18:40:45 10° ENE visible
09 Feb ? 20:14:21 10° WNW 20:18:20 34° N 20:18:20 34° N visible
10 Feb ? 18:49:37 10° W 18:53:55 48° NNW 18:58:02 11° NE visible
10 Feb ? 20:32:11 10° WNW 20:35:09 29° NNW 20:35:09 29° NNW visible
11 Feb ? 19:07:30 10° W 19:11:39 37° N 19:14:50 15° NE visible
11 Feb ? 20:49:53 10° WNW 20:51:58 23° NW 20:51:58 23° NW visible
12 Feb ? 19:25:24 10° WNW 19:29:26 32° N 19:31:38 21° NE visible
12 Feb ? 21:07:27 10° WNW 21:08:46 18° NW 21:08:46 18° NW visible
13 Feb ? 19:43:11 10° WNW 19:47:13 33° N 19:48:26 28° NE visible
13 Feb ? 21:24:55 10° WNW 21:25:34 14° WNW 21:25:34 14° WNW visible
14 Feb ? 20:00:48 10° WNW 20:04:59 39° NNE 20:05:16 38° NNE visible
15 Feb ? 18:36:25 10° WNW 18:40:26 32° N 18:44:27 10° ENE visible
15 Feb ? 20:18:18 10° WNW 20:22:07 50° N 20:22:07 50° N visible
16 Feb ? 18:54:07 10° WNW 18:58:14 35° N 19:01:54 12° ENE visible
16 Feb ? 20:35:47 10° WNW 20:39:01 48° NW 20:39:01 48° NW visible
17 Feb ? 19:11:40 10° WNW 19:15:56 44° NNE 19:18:52 18° E visible
17 Feb ? 20:53:19 10° WNW 20:56:00 34° W 20:56:00 34° W visible
18 Feb ? 19:29:08 10° WNW 19:33:33 65° NNE 19:35:54 26° E visible
18 Feb ? 21:11:07 10° WNW 21:13:03 21° W 21:13:03 21° W visible
